Weather History for KPBG - July, 2012

Change the Weather History Date:

Wednesday, July 25, 2012

  Actual Average Record
Temperature  
Mean Temperature 70 °F 70 °F  
Max Temperature 79 °F 80 °F 96 °F (1963)
Min Temperature 61 °F 59 °F 47 °F (1953)
Degree Days  
Heating Degree Days 0 0  
Month to date heating degree days 12  
Since 1 June heating degree days 97  
Since 1 July heating degree days 12  
Cooling Degree Days 5 5  
Month to date cooling degree days 151 119  
Year to date cooling degree days 277 189  
Since 1 June cooling degree days 241 181  
Growing Degree Days 20 (Base 50)    
Moisture  
Dew Point 55 °F    
Average Humidity 65    
Maximum Humidity 87    
Minimum Humidity 42    
Precipitation  
Precipitation 0.00 in - 1.35 in (1972)
Month to date precipitation 3.14  
Year to date precipitation 13.73  
Sea Level Pressure  
Sea Level Pressure 29.83 in    
Wind  
Wind Speed 7 mph (NW)    
Max Wind Speed 15 mph    
Max Gust Speed 16 mph    
Visibility 10 miles    
Events      
T = Trace of Precipitation, MM = Missing Value Source: NWS Daily Summary

Daily Weather History Graph

Daily Weather History Graph

Search for Another Location

Airport or City:

Trip Planner

Search our weather history database for the weather conditions in past years. The results will help you decide how hot, cold, wet, or windy it might be!

Date:

Astronomy

Jul. 25, 2012 Rise Set
Actual Time 5:33 AM EDT 8:27 PM EDT
Civil Twilight 4:58 AM EDT 9:01 PM EDT
Nautical Twilight 4:15 AM EDT 9:44 PM EDT
Astronomical Twilight 3:23 AM EDT 10:35 PM EDT
Moon 12:56 PM EDT (7/25) 11:28 PM EDT (7/25)
Length of Visible Light 16h 02m
Length of Day
14h 54m
Waxing Crescent, 42% of the Moon is Illuminated
Jul 25
Waxing Crescent
Jul 26
First Quarter
Aug 1
Full
Aug 9
Last Quarter
Aug 17
New

Hourly Weather History & Observations

Time (EDT) Temp. Dew Point Humidity Pressure Visibility Wind Dir Wind Speed Gust Speed Precip Events Conditions
12:53 AM 66.0 °F 53.1 °F 63% 29.80 in 10.0 mi NW 10.4 mph 16.1 mph N/A   Mostly Cloudy
1:53 AM 64.9 °F 53.1 °F 65% 29.81 in 10.0 mi NW 11.5 mph - N/A   Clear
2:53 AM 64.0 °F 53.1 °F 67% 29.82 in 10.0 mi NW 9.2 mph - N/A   Clear
3:53 AM 62.1 °F 53.1 °F 72% 29.83 in 10.0 mi WNW 6.9 mph - N/A   Clear
4:53 AM 62.1 °F 53.1 °F 72% 29.84 in 10.0 mi NW 9.2 mph - N/A   Clear
5:53 AM 61.0 °F 53.1 °F 75% 29.85 in 10.0 mi NW 6.9 mph - N/A   Clear
6:53 AM 63.0 °F 54.0 °F 72% 29.87 in 10.0 mi WNW 8.1 mph - N/A   Clear
7:53 AM 66.0 °F 53.1 °F 63% 29.88 in 10.0 mi NNW 11.5 mph - N/A   Clear
8:53 AM 68.0 °F 52.0 °F 56% 29.88 in 10.0 mi North 15.0 mph - N/A   Partly Cloudy
9:53 AM 70.0 °F 52.0 °F 53% 29.88 in 10.0 mi NNW 10.4 mph - N/A   Partly Cloudy
10:53 AM 72.0 °F 53.1 °F 51% 29.90 in 10.0 mi NNW 11.5 mph - N/A   Scattered Clouds
11:53 AM 73.9 °F 53.1 °F 48% 29.89 in 10.0 mi NW 8.1 mph - N/A   Scattered Clouds
12:53 PM 75.0 °F 52.0 °F 44% 29.88 in 10.0 mi NNE 8.1 mph - N/A   Partly Cloudy
1:53 PM 73.0 °F 54.0 °F 51% 29.86 in 10.0 mi East 10.4 mph - N/A   Clear
2:53 PM 75.0 °F 54.0 °F 48% 29.84 in 10.0 mi ENE 5.8 mph - N/A   Clear
3:53 PM 78.1 °F 53.1 °F 42% 29.83 in 10.0 mi Variable 6.9 mph - N/A   Clear
4:53 PM 73.9 °F 54.0 °F 50% 29.81 in 10.0 mi SE 9.2 mph - N/A   Clear
5:53 PM 73.9 °F 55.9 °F 53% 29.80 in 10.0 mi Variable 5.8 mph - N/A   Clear
6:53 PM 71.1 °F 57.9 °F 63% 29.81 in 10.0 mi Calm Calm - N/A   Clear
7:53 PM 69.1 °F 57.9 °F 68% 29.79 in 10.0 mi WSW 4.6 mph - N/A   Clear
8:53 PM 64.9 °F 60.1 °F 84% 29.78 in 10.0 mi Calm Calm - N/A   Clear
9:53 PM 66.0 °F 57.9 °F 75% 29.77 in 10.0 mi SW 3.5 mph - N/A   Clear
10:53 PM 64.9 °F 57.9 °F 78% 29.76 in 10.0 mi SW 3.5 mph - N/A   Clear
11:53 PM 64.9 °F 57.9 °F 78% 29.75 in 10.0 mi Calm Calm - N/A   Partly Cloudy